sat.trackr.live / text

‹ back to catalog

STARLINK-32620

NORAD 61928 · 2024-207S

PAYLOAD ACTIVE UNKNOWN

§ Identity

Operator
Country
US
Launch date
2024-11-11
Launch site
AFETR
Launch vehicle
Mass (kg)
RCS (m²)

Purposes: comms

External: N2YO · Heavens-Above · Gunter

§ Orbital elements

Epoch: 2026-05-24T21:00:30.634848Z

Period
94.27 min
Inclination
42.9948°
Eccentricity
0.0001442
Mean motion
15.27582879 rev/d
Perigee alt
482.1 km
Apogee alt
484.0 km
Semi-major
6,861.2 km
B*
4.2962e-4
RAAN
211.4834°
Arg perigee
273.1883°
Mean anomaly
86.8804°
Rev number
8,637

§ Raw data

STARLINK-326201 61928U 24207S   26144.87535457  .00011580  00000+0  42962-3 0  99922 61928  42.9948 211.4834 0001442 273.1883  86.8804 15.27582879 86372

JSON: /api/v1/satellites/61928 · /tle

For live sub-satellite position, see the globe view (requires WebGL).

§ Visibility from observer

Set your observer location to see the next 7 days of passes ≥ 10°. The values pass through the URL so the page stays shareable.

No JS? Fill the form by hand. The geolocation button needs JavaScript.